Date String (YYYY-MM-DD hh:mm:ss) UTC,Instrument flags,absolute air pressure of the measurement (hPa),sample flow rate (lpm),inlet stack bypass flow (lpm),air temperature of the measurement (°C),ambient temperature measured by the external sensor (°C),aerosol sample conditioner tube jacket temperature (°C),OPC LED temperature (°C),internal box temperature (°C),relative humidity of the measurement (%),span deviation,mass concentration of particles derived from Lorenz-Mie calculation of OPC scattering (μg/m³),mass concentration of particles derived from Lorenz-Mie calculation of OPC scattering (μg/m³),mass concentration of particles derived from Lorenz-Mie calculation of OPC scattering (μg/m³)
DateTimeUTC,F1_M11,P_M11,Q1_M11,Q2_M11,T1_M11,T2_M11,T3_M11,T4_M11,T5_M11,U1_M11,ZSPAN_M11,X2_M11,X0_M11,X1_M11
2023-06-16 20:00:00,SystemResetWarning,0833.2,5.00,000.00,030.0,028.2,000.0,038.6,031.6,31.1,0000.0,0002.56,0004.30,0001.91
2023-06-16 20:01:00,SystemResetWarning,0833.3,5.00,000.00,030.0,028.3,000.0,038.6,031.6,30.9,0000.0,0002.58,0004.16,0001.94
2023-06-16 20:02:00,SystemResetWarning,0833.3,4.99,000.00,030.0,028.4,000.0,038.6,031.6,31.0,0000.0,0002.59,0005.51,0001.95
2023-06-16 20:03:00,SystemResetWarning,0833.4,5.00,000.00,030.1,028.4,000.0,038.6,031.6,31.4,0000.0,0002.58,0005.60,0001.97
2023-06-16 20:04:00,SystemResetWarning,0833.4,5.00,000.00,030.1,028.5,000.0,038.6,031.6,31.3,0000.0,0002.60,0005.65,0001.98
2023-06-16 20:05:00,SystemResetWarning,0833.4,5.00,000.00,030.1,028.5,000.0,038.6,031.7,30.9,0000.0,0002.61,0005.92,0002.01
2023-06-16 20:06:00,SystemResetWarning,0833.4,5.00,000.00,030.1,028.6,000.0,038.6,031.7,31.2,0000.0,0002.62,0006.40,0002.03
2023-06-16 20:07:00,SystemResetWarning,0833.4,5.00,000.00,030.1,028.6,000.0,038.6,031.7,30.9,0000.0,0002.66,0006.77,0002.03
2023-06-16 20:08:00,SystemResetWarning,0833.3,5.00,000.00,030.1,028.6,000.0,038.6,031.7,31.2,0000.0,0002.77,0007.14,0002.04
2023-06-16 20:09:00,SystemResetWarning,0833.4,4.99,000.00,030.2,028.7,000.0,038.7,031.8,30.9,0000.0,0002.80,0007.25,0002.03
2023-06-16 20:10:00,SystemResetWarning,0833.3,5.00,000.00,030.2,028.7,000.0,038.7,031.8,30.6,0000.0,0002.80,0007.25,0002.04
2023-06-16 20:11:00,SystemResetWarning,0833.3,5.00,000.00,030.2,028.7,000.0,038.7,031.8,30.4,0000.0,0002.79,0007.10,0002.05
2023-06-16 20:12:00,SystemResetWarning,0833.3,5.00,000.00,030.2,028.7,000.0,038.7,031.8,30.5,0000.0,0002.76,0007.09,0002.05
2023-06-16 20:13:00,SystemResetWarning,0833.3,5.00,000.00,030.2,028.7,000.0,038.7,031.8,30.6,0000.0,0002.71,0005.67,0002.03
2023-06-16 20:14:00,SystemResetWarning,0833.2,5.00,000.00,030.3,028.8,000.0,038.7,031.8,31.0,0000.0,0002.69,0005.37,0002.04
2023-06-16 20:15:00,SystemResetWarning,0833.2,5.01,000.00,030.3,028.8,000.0,038.8,031.8,30.8,0000.0,0002.70,0005.63,0002.05
2023-06-16 20:16:00,SystemResetWarning,0833.3,5.00,000.00,030.3,028.8,000.0,038.8,031.9,30.8,0000.0,0002.75,0005.96,0002.06
2023-06-16 20:17:00,SystemResetWarning,0833.4,5.00,000.00,030.3,028.8,000.0,038.8,031.9,30.8,0000.0,0002.77,0005.84,0002.07
2023-06-16 20:18:00,SystemResetWarning,0833.4,4.99,000.00,030.3,028.9,000.0,038.8,031.9,30.8,0000.0,0002.72,0005.82,0002.07
2023-06-16 20:19:00,SystemResetWarning,0833.4,5.00,000.00,030.3,028.9,000.0,038.8,031.9,30.9,0000.0,0002.63,0005.37,0002.07
2023-06-16 20:20:00,SystemResetWarning,0833.4,5.00,000.00,030.4,028.9,000.0,038.8,031.9,30.7,0000.0,0002.55,0005.12,0002.08
2023-06-16 20:21:00,SystemResetWarning,0833.4,4.98,000.00,030.4,027.5,000.0,038.8,031.9,30.2,0000.0,0002.54,0005.10,0002.09
2023-06-16 20:22:00,SystemResetWarning,0833.4,5.01,000.00,030.3,025.4,000.0,038.7,031.7,29.9,0000.0,0002.55,0005.13,0002.07
2023-06-16 20:23:00,SystemResetWarning,0833.4,5.00,000.00,030.3,024.9,000.0,038.7,031.6,30.7,0000.0,0002.51,0005.03,0002.07
2023-06-16 20:24:00,SystemResetWarning,0833.4,5.00,000.00,030.1,025.1,000.0,038.7,031.3,31.6,0000.0,0002.56,0005.14,0002.09
2023-06-16 20:25:00,SystemResetWarning,0833.4,5.01,000.00,030.0,025.6,000.0,038.7,031.2,32.0,0000.0,0002.61,0005.36,0002.10
2023-06-16 20:26:00,SystemResetWarning,0833.4,4.99,000.00,030.0,026.1,000.0,038.6,031.2,31.0,0000.0,0002.62,0005.10,0002.09
2023-06-16 20:27:00,SystemResetWarning,0833.4,4.99,000.00,030.0,026.5,000.0,038.6,031.3,30.5,0000.0,0002.58,0004.65,0002.10
2023-06-16 20:28:00,SystemResetWarning,0833.4,5.00,000.00,030.0,026.9,000.0,038.6,031.3,31.0,0000.0,0002.57,0004.06,0002.11
2023-06-16 20:29:00,SystemResetWarning,0833.4,5.01,000.00,029.9,027.2,000.0,038.6,031.3,31.5,0000.0,0002.60,0003.83,0002.11
2023-06-16 20:30:00,SystemResetWarning,0833.4,4.99,000.00,029.9,027.5,000.0,038.6,031.4,31.1,0000.0,0002.58,0003.80,0002.10
2023-06-16 20:31:00,SystemResetWarning,0833.4,4.99,000.00,029.9,027.7,000.0,038.6,031.4,30.8,0000.0,0002.58,0003.86,0002.08
2023-06-16 20:32:00,SystemResetWarning,0833.4,5.00,000.00,030.0,027.9,000.0,038.6,031.4,30.8,0000.0,0002.53,0003.76,0002.05
2023-06-16 20:33:00,SystemResetWarning,0833.4,5.00,000.00,030.0,028.0,000.0,038.6,031.5,30.5,0000.0,0002.52,0003.70,0002.05
2023-06-16 20:34:00,SystemResetWarning,0833.5,5.00,000.00,030.0,028.1,000.0,038.6,031.5,30.3,0000.0,0002.52,0003.73,0002.04
2023-06-16 20:35:00,SystemResetWarning,0833.4,5.01,000.00,030.0,028.2,000.0,038.6,031.5,30.1,0000.0,0002.44,0003.68,0002.01
2023-06-16 20:36:00,SystemResetWarning,0833.4,5.00,000.00,030.0,028.3,000.0,038.6,031.6,30.6,0000.0,0002.36,0003.57,0001.97
2023-06-16 20:37:00,SystemResetWarning,0833.4,5.00,000.00,030.0,028.4,000.0,038.6,031.6,30.2,0000.0,0002.32,0003.52,0001.95
2023-06-16 20:38:00,SystemResetWarning,0833.5,4.98,000.00,030.1,028.4,000.0,038.6,031.6,30.5,0000.0,0002.28,0003.47,0001.93
2023-06-16 20:39:00,SystemResetWarning,0833.5,4.99,000.00,030.1,028.5,000.0,038.6,031.7,30.5,0000.0,0002.31,0003.50,0001.94
2023-06-16 20:40:00,SystemResetWarning,0833.4,5.00,000.00,030.1,028.5,000.0,038.6,031.6,30.8,0000.0,0002.35,0003.50,0001.97
2023-06-16 20:41:00,SystemResetWarning,0833.5,5.01,000.00,030.1,028.6,000.0,038.6,031.7,31.4,0000.0,0002.39,0003.56,0002.01
2023-06-16 20:42:00,SystemResetWarning,0833.5,5.01,000.00,030.1,028.6,000.0,038.6,031.7,31.0,0000.0,0002.42,0003.58,0002.05
2023-06-16 20:43:00,SystemResetWarning,0833.4,5.00,000.00,030.1,028.6,000.0,038.6,031.7,30.8,0000.0,0002.50,0003.81,0002.09
2023-06-16 20:44:00,SystemResetWarning,0833.4,4.99,000.00,030.2,028.7,000.0,038.6,031.7,30.8,0000.0,0002.52,0003.82,0002.12
2023-06-16 20:45:00,SystemResetWarning,0833.4,5.00,000.00,030.2,028.7,000.0,038.7,031.8,30.7,0000.0,0002.56,0003.87,0002.16
2023-06-16 20:46:00,SystemResetWarning,0833.4,5.00,000.00,030.2,028.7,000.0,038.7,031.7,30.8,0000.0,0002.62,0003.87,0002.20
2023-06-16 20:47:00,SystemResetWarning,0833.4,5.00,000.00,030.2,028.7,000.0,038.7,031.8,30.5,0000.0,0002.69,0003.87,0002.26
2023-06-16 20:48:00,SystemResetWarning,0833.5,5.00,000.00,030.2,028.8,000.0,038.7,031.8,30.4,0000.0,0002.75,0004.04,0002.31
2023-06-16 20:49:00,SystemResetWarning,0833.6,5.00,000.00,030.3,028.8,000.0,038.7,031.8,30.3,0000.0,0002.82,0004.16,0002.37
2023-06-16 20:50:00,SystemResetWarning,0833.6,5.00,000.00,030.3,028.8,000.0,038.7,031.8,30.2,0000.0,0002.83,0004.16,0002.40
2023-06-16 20:51:00,SystemResetWarning,0833.6,5.00,000.00,030.3,028.8,000.0,038.8,031.8,30.3,0000.0,0002.87,0004.29,0002.40
2023-06-16 20:52:00,SystemResetWarning,0833.6,5.00,000.00,030.3,028.8,000.0,038.8,031.9,30.3,0000.0,0002.87,0004.27,0002.41
2023-06-16 20:53:00,SystemResetWarning,0833.6,5.00,000.00,030.3,028.8,000.0,038.8,031.9,30.4,0000.0,0002.90,0004.39,0002.43
2023-06-16 20:54:00,SystemResetWarning,0833.6,5.00,000.00,030.3,028.9,000.0,038.8,031.9,30.3,0000.0,0002.90,0004.25,0002.45
2023-06-16 20:55:00,SystemResetWarning,0833.6,5.00,000.00,030.4,028.9,000.0,038.8,031.9,30.3,0000.0,0002.93,0004.32,0002.46
2023-06-16 20:56:00,SystemResetWarning,0833.6,5.00,000.00,030.4,028.9,000.0,038.8,031.9,30.2,0000.0,0002.93,0004.39,0002.46
2023-06-16 20:57:00,SystemResetWarning,0833.6,5.00,000.00,030.4,028.9,000.0,038.9,032.0,30.2,0000.0,0002.94,0004.42,0002.45
2023-06-16 20:58:00,SystemResetWarning,0833.6,5.00,000.00,030.4,028.9,000.0,038.9,032.0,30.2,0000.0,0002.95,0004.31,0002.44
2023-06-16 20:59:00,SystemResetWarning,0833.7,5.00,000.00,030.4,028.9,000.0,038.9,032.0,30.1,0000.0,0002.93,0004.40,0002.43
